www.pogodaiklimat.ru

Погода и климат >> Архив погоды >> Киргизия >> Бишкек


АРХИВ ПОГОДЫ в Бишкеке

Время (UTC), дата Ветер
(напр.,м/с)
 
Видим.   Явления Облачность Т
(С)
Тd
(С)
f
(%)
Тe
(С)
Тes
(С)
Комфортность P
(гПа)
Po
(гПа)
Тmin
(С)
Tmax
(С)
R
(мм)
R24
(мм)
S
(см)
18 15.04 З 1 н/о слаб. дождь 10/10 600 м
[Sc]
+13.0 +11.7 92 +13 +13 тепло 1012.7 926.5 +24.6 0.3
21 15.04 штиль 0 н/о {дождь} 10/4 600 м
[Sc Ac trans]
+13.2 +10.9 86 +13 +13 тепло 1012.1 926.0
00 16.04 З 1 н/о слаб. дождь 10/10 600 м
[Sc]
+12.6 +11.3 92 +13 +13 тепло 1012.7 926.4
03 16.04 СЗ 1 10 км {дождь} 10/8 600 м
[Sc Ac trans]
+12.5 +12.1 97 +12 +13 по сезону 1012.3 926.0 3
06 16.04 СЗ 1 10 км слаб. дождь 10/10 600 м
[Sc]
+13.3 +12.7 96 +13 +13 прохладно 1011.9 926.0 3
09 16.04 СЗ 1 4000 м дождь 10/10 300 м
[Frnb Ns]
+13.0 +12.6 97 +13 +13 прохладно 1012.0 925.9
12 16.04 З 1 10 км слаб. дождь 10/10 600 м
[Sc]
+12.7 +12.5 99 +13 +13 прохладно 1012.4 926.3
15 16.04 штиль 0 н/о слаб. дождь 10/10 600 м
[Sc]
+11.4 +11.2 99 +11 +11 прохладно 1014.5 927.7 +14.4 9
18 16.04 Ю 2 н/о {дождь} 10/6 600 м
[Sc Ac und]
+12.5 +8.9 79 +12 +12 по сезону 1012.3 925.9 +14.4 9
21 16.04 Ю 2 н/о 10/4 600 м
[Sc Ac und]
+11.5 +10.7 95 +10 +10 по сезону 1013.0 926.4
00 17.04 З 1 н/о слаб. дождь 10/10 600 м
[Sc]
+10.9 +10.5 97 +10 +10 тепло 1014.2 927.3
03 17.04 ЮВ 2 10 км {дождь} 10/10 600 м
[Sc]
+12.7 +8.9 78 +12 +12 по сезону 1013.7 927.3 2
06 17.04 СВ 1 20 км {дождь} 10/0
[Ac trans]
+16.2 +10.4 68 +17 +24 по сезону 1013.5 928.2 2
09 17.04 СЗ 1 20 км 10/3 600 м
[Sc Ac trans]
+16.8 +7.1 53 +18 +22 тепло 1013.2 927.9
12 17.04 ЮЗ 1 20 км 3/0
[Ac trans]
+17.9 +8.1 53 +19 +21 тепло 1012.6 927.7
15 17.04 штиль 0 н/о 3/0
[Ac trans]
+13.5 +9.5 77 +13 +13 по сезону 1013.9 927.7 +18.1
18 17.04 Ю 1 н/о 4/0
[Ci fib]
+11.9 +7.6 75 +12 +12 по сезону 1014.1 927.4 +18.1
21 17.04 Ю 1 н/о 8/0
[Ci fib]
+10.9 +7.6 80 +11 +11 по сезону 1013.1 926.2
00 18.04 Ю 1 н/о 8/0
[Ac trans Ci fib]
+8.4 +6.4 87 +8 +8 по сезону 1014.8 927.0
03 18.04 ЮЗ 2 20 км 4/0
[Ci fib]
+13.5 +8.2 70 +13 +18 по сезону 1016.2 929.8
06 18.04 СЗ 2 20 км 3/0
[Ac trans]
+7.2 +10.3 100 +5 +17 опасность
простуды
1015.0 929.8
09 18.04 СЗ 1 10 км 6/6 1000 м
[Cu hum]
+19.2 +9.8 54 +21 +27 комфорт 1013.4 928.9
12 18.04 СЗ 2 20 км 3/3 1500 м
[Cu hum]
+20.0 +9.5 51 +22 +24 комфорт 1013.2 928.9
15 18.04 ЮЗ 1 н/о 10/0
[Ac trans Ci fib]
+16.1 +10.9 71 +17 +17 тепло 1014.3 928.9 +21.2
18 18.04 Ю 1 н/о 8/0
[Ci fib]
+14.1 +10.9 81 +14 +14 тепло 1013.6 927.7 +21.2
21 18.04 штиль 0 н/о 10/0
[Ac trans Ci fib]
+13.7 +10.4 80 +13 +13 тепло 1011.7 925.8
00 19.04 ЮВ 1 н/о 10/0
[Ac trans Ci fib]
+14.0 +8.4 69 +14 +14 тепло 1010.5 924.7
03 19.04 СЗ 1 20 км 10/0
[Ac trans Ci fib]
+13.7 +9.8 77 +14 +18 тепло 1013.8 927.7
06 19.04 В 1 20 км 10/0
[Ac trans Ci fib]
+22.1 +9.3 44 +24 +32 комфорт 1006.4 923.2
09 19.04 З 8 10 км 10/4 600 м
[Cb cap Ac trans Ci fib]
+18.0 +10.7 62 +17 +18 по сезону 1012.1 927.4
12 19.04 штиль 0 20 км 10/8 600 м
[Cb cap Ac trans]
+17.3 +11.4 68 +17 +18 по сезону 1011.6 926.7
15 19.04 штиль 0 н/о {ливн. осадки} 10/8 600 м
[Cb cap Ac trans]
+15.5 +12.6 83 +15 +15 по сезону 1012.8 927.4 +26.6
18 19.04 штиль 0 н/о {ливн. осадки} 10/0
[Ac trans]
+14.6 +12.0 84 +14 +14 тепло 1012.9 927.2 +22.6 0.3
21 19.04 штиль 0 н/о 10/0
[Ac trans Ci fib]
+12.4 +10.6 89 +12 +12 тепло 1010.9 924.7
00 20.04 З 1 н/о 10/0
[Ac trans Ci fib]
+10.4 +8.8 90 +10 +10 по сезону 1011.6 924.7
03 20.04 З 1 10 км слаб. ливневой дождь 10/10 600 м
[Cb cap]
+11.6 +11.6 100 +11 +11 по сезону 1014.0 927.4 2
06 20.04 СЗ 2 10 км в посл. час ливневой дождь 10/10 600 м
[Cb cap]
+11.1 +10.7 97 +10 +10 очень
холодно
1015.6 928.6 2
09 20.04 СЗ 2 20 км {ливн. осадки} 8/8 600 м
[Cb cap]
+15.6 +10.3 71 +16 +18 по сезону 1013.6 928.1
12 20.04 СВ 2 10 км {ливн. осадки} 10/6 600 м
[Cb cap Ac trans]
+14.1 +10.9 81 +14 +14 прохладно 1015.2 929.2
15 20.04 штиль 0 н/о 10/10 600 м
[Cb cap]
+13.3 +10.5 83 +13 +13 по сезону 1015.5 929.2 +16.7
18 20.04 штиль 0 н/о 10/10 600 м
[Cb cap]
+12.8 +10.9 88 +12 +12 по сезону 1014.6 928.2 +16.7 3
21 20.04 СЗ 1 н/о ливневой дождь 10/10 600 м
[Cb cap]
+11.5 +11.1 97 +11 +11 по сезону 1015.0 928.2
00 21.04 В 2 н/о {ливн. осадки} 8/4 600 м
[Cb cap Ac trans]
+11.5 +10.5 94 +10 +10 по сезону 1011.6 925.1
03 21.04 штиль 0 20 км 8/3 600 м
[Cb cap Ac trans]
+12.3 +10.5 89 +12 +15 по сезону 1009.4 923.4 8
06 21.04 З 6 10 км 10/10 600 м
[Cb cap]
+13.6 +11.0 84 +11 +11 холодно 1009.9 924.1 8
09 21.04 З 3 10 км 10/10 600 м
[Cb cap]
+13.7 +10.4 80 +13 +13 прохладно 1011.7 925.8
12 21.04 З 2 10 км 10/8 600 м
[Cb cap Ac trans]
+13.4 +10.5 83 +13 +13 холодно 1013.5 927.4
15 21.04 СВ 2 н/о {ливн. осадки} 10/6 600 м
[Cb cap Ac trans]
+12.1 +10.7 91 +11 +11 прохладно 1014.6 928.0 +15.4
18 21.04 штиль 0 н/о слаб. ливневой дождь 10/10 600 м
[Cb cap]
+12.2 +11.7 97 +12 +12 по сезону 1016.2 929.5 +15.4 1
21 21.04 З 2 н/о слаб. ливневой дождь 10/8 600 м
[Cb cap Ac trans]
+11.1 +10.5 96 +10 +10 по сезону 1018.1 930.9
00 22.04 СЗ 2 н/о слаб. ливневой дождь 10/10 600 м
[Cb cap]
+8.7 +8.1 96 +7 +7 по сезону 1020.4 932.2
03 22.04 СВ 1 700 м слаб. ливневой дождь 10/10
[Cb cap]
+8.7 +8.1 96 +8 +8 прохладно 1019.3 932.8 8
06 22.04 В 1 10 км {ливн. осадки} 10/8 1000 м
[Cu hum Ac trans]
+12.3 +10.5 89 +12 +14 холодно 1020.0 933.0 8
09 22.04 СЗ 1 10 км ливневой дождь 10/10 600 м
[Cb cap]
+13.3 +10.4 83 +13 +13 прохладно 1018.1 931.5
12 22.04 штиль 0 10 км {ливн. осадки} 10/10 1000 м
[Cb cap]
+12.7 +12.0 96 +12 +12 холодно 1018.8 932.0
15 22.04 штиль 0 н/о 10/0
[Ac trans]
+11.7 +8.2 79 +11 +11 прохладно 1018.8 931.6 +15.1

 

Местоположение метеостанции Бишкек (город Бишкек, Киргизия): широта 42.85 долгота 74.53 высота над уровнем моря 760 м.

В архиве по умолчанию представлена погода в Бишкеке за последнюю неделю. Архивные данные за месяц целиком и за предыдущие месяцы, начиная с января 2011 года, Вы можете получить, выбрав интересующий диапазон дат из раскрывающегося списка и нажав кнопку "Ввод!".


*Определитесь, кто Вы:
робот инопланетянин человек

Внимание! Время в таблицах - всемирное. Для получения местного времени необходимо прибавить поправку, которая равна 6 ч.

Смотрите также архив погоды в соседних городах и на ближайших метеорологических станциях:

Погода в Байтике (Чуйская область, Киргизия) (22 км)
Погода в Иссык-Ате (город Бишкек, Киргизия) (28 км)
Погода в Яны-Жере (Чуйская область, Киргизия) (46 км)
Погода в Бериктасе (Жамбылская область, Казахстан) (49 км)
Погода в Кара-Балте (Чуйская область, Киргизия) (58 км)
Погода в Тео-Ашуу (Чуйская область, Киргизия) (58 км)
Погода в Токмоке (Чуйская область, Киргизия) (61 км)
Погода в Кордае (Жамбылская область, Казахстан) (66 км)
Погода в Сусамыре (Чуйская область, Киргизия) (90 км)
Погода в Отаре (Жамбылская область, Казахстан) (96 км)

Пояснения к столбцам:

Ветер - указаны скорость ветра в м/с - средняя за 10 мин, порывы в срок и между сроками (в фигурных скобках) и направление, откуда дует ветер: С - северный, СВ - северо-восточный, В - восточный, ЮВ - юго-восточный, Ю - южный, ЮЗ - юго-западный, З - западный, СЗ - северо-западный.
Видимость - горизонтальная дальность видимости в метрах или километрах. При видимости от 1 до 10 км при отсутствии осадков обычно наблюдается дымка, при ухудшении видимости до 1 км и менее - туман. В сухую погоду видимость может ухудшаться дымом, пылью или мглою.
Явления - указаны атмосферные явления, наблюдавшиеся в срок или в последний час перед сроком; фигурными скобками обозначены явления, наблюдавшиеся между сроками (за 1-3 часа до срока); квадратными скобками обозначены град или гололедные отложения с указанием их диаметра в мм.
Облачность - указаны через наклонную черту общая и нижняя облачность в баллах и высота нижней границы облаков в метрах; квадратными скобками обозначены формы облаков: Ci - перистые, Cs - перисто-слоистые, Cc - перисто-кучевые, Ac - высококучевые, As - высокослоистые, Sc - слоисто-кучевые, Ns - слоисто-дождевые, Cu - кучевые, Cb - кучево-дождевые. Подробнее классификацию облаков см. в Атласе облаков (PDF).
T - Температура воздуха - температура, измеренная на высоте 2 м над землей.
Td - Температура точки росы - температура, при понижении до которой содержащийся в воздухе водяной пар достигнет насыщения.
f - Относительная влажность воздуха - влажноcть воздуха, измеренная на высоте 2 м над землей.
Te - Эффективная температура - температура, которую ощущает одетый по сезону человек в тени. Характеристика душности погоды. При расчете учитывается влияние влажности воздуха и скорости ветра на теплоощущения человека.
Tes - Эффективная температура на солнце - температура, которую ощущает человек, с поправкой на солнечный нагрев. Характеристика знойности погоды. Зависит от высоты солнца над горизонтом, облачности и скорости ветра. Ночью, в пасмурную погоду, а также при ветре 12 м/с и более поправка равна нулю.
P - Атмосферное давление - приведенное к уровню моря атмосферное давление.
Po - Атмосферное давление - измеренное на уровне метеостанции атмосферное давление.
Tmin - Минимальная температура - минимум температуры воздуха на высоте 2 м над землей.
Tmax - Максимальная температура - максимум температуры воздуха на высоте 2 м над землей.
R - Количество осадков - Количество выпавших осадков за период времени, мм. При наведении курсора мыши на число - период времени, за который выпало указанное количество осадков.
R24 - Количество осадков - Количество выпавших осадков за 24 часа, мм.
S - Снежный покров - Высота снежного покрова, см. При наведении курсора мыши на число - состояние снежного покрова и степень покрытия местности в баллах.